Location: Praha
(50.0830°N, 14.4670°E)
Time: 22:38:26
(UTC+01:00)

ISS - Pass Details

Date: 25 November 2021
Orbit: 417 x 423 km, 51.6° (Epoch: 28 November)

Event Time Altitude Azimuth Distance (km) Brightness Sun altitude
Rises 16:58:53 0° 233° (SW) 2,370 1.9 -8.2°
Reaches altitude 10° 17:01:01 10° 228° (SW) 1,508 0.4 -8.5°
Maximum altitude 17:04:17 48° 153° (SSE) 565 -3.2 -9.0°
Enters shadow 17:07:07 13° 80° (E) 1,337 -1.8 -9.4°
